Weather History for Wilmington, DE

Change the Weather History Date:

Friday, October 18, 2013

  Actual Average Record
Temperature  
Mean Temperature 58 °F 55 °F  
Max Temperature 67 °F 65 °F 81 °F (1938)
Min Temperature 48 °F 45 °F 28 °F (1982)
Degree Days  
Heating Degree Days 7 10  
Month to date heating degree days 45 134  
Since 1 July heating degree days 114 186  
Cooling Degree Days 0 0  
Month to date cooling degree days 49 15  
Year to date cooling degree days 1241 1142  
Growing Degree Days 8 (Base 50)    
Moisture  
Dew Point 46 °F    
Average Humidity 68    
Maximum Humidity 93    
Minimum Humidity 42    
Precipitation  
Precipitation 0.00 in 0.10 in 2.37 in (1932)
Month to date precipitation 1.90 2.09  
Year to date precipitation 40.15 35.17  
Snow  
Snow 0.00 in 0.00 in 0.00 in (1894)
Month to date snowfall 0.0 0.0  
Since 1 July snowfall 0.0 0.0  
Since 1 September snowfall 0.0 0.0  
Snow Depth 0.00 in    
Sea Level Pressure  
Sea Level Pressure 29.93 in    
Wind  
Wind Speed 8 mph (WNW)    
Max Wind Speed 25 mph    
Max Gust Speed 35 mph    
Visibility 10 miles    
Events      
T = Trace of Precipitation, MM = Missing Value Source: NWS Daily Summary

Daily Weather History Graph

Daily Weather History Graph

Search for Another Location

Airport:

Trip Planner

Search our weather history database for the weather conditions in past years. The results will help you decide how hot, cold, wet, or windy it might be!

Date:

Astronomy

Oct. 18, 2013 Rise Set
Actual Time 7:15 AM EDT 6:18 PM EDT
Civil Twilight 6:48 AM EDT 6:45 PM EDT
Nautical Twilight 6:17 AM EDT 7:17 PM EDT
Astronomical Twilight 5:46 AM EDT 7:48 PM EDT
Moon 6:07 PM EDT (10/18) 6:49 AM EDT (10/18)
Length of Visible Light 11h 57m
Length of Day
11h 02m
Full, 100% of the Moon is Illuminated
Oct 18
Full
Oct 18
Full
Oct 26
Last Quarter
Nov 3
New
Nov 10
First Quarter

Hourly Weather History & Observations

Time (EDT) Temp. Dew Point Humidity Pressure Visibility Wind Dir Wind Speed Gust Speed Precip Events Conditions
12:04 AM 69.8 °F 60.8 °F 73% 29.76 in 10.0 mi WNW 13.8 mph 23.0 mph N/A   Overcast
12:12 AM 68.0 °F 57.2 °F 68% 29.77 in 10.0 mi WNW 24.2 mph 32.2 mph N/A   Overcast
12:51 AM 64.9 °F 55.9 °F 73% 29.78 in 10.0 mi WNW 17.3 mph 25.3 mph N/A   Overcast
1:51 AM 63.0 °F 53.1 °F 70% 29.81 in 10.0 mi WNW 18.4 mph - N/A   Partly Cloudy
2:51 AM 60.1 °F 45.0 °F 57% 29.84 in 10.0 mi WNW 15.0 mph - N/A   Partly Cloudy
3:51 AM 57.0 °F 46.0 °F 67% 29.85 in 10.0 mi WNW 10.4 mph 19.6 mph N/A   Clear
4:51 AM 55.9 °F 46.0 °F 69% 29.87 in 10.0 mi WSW 5.8 mph - N/A   Clear
5:51 AM 53.1 °F 45.0 °F 74% 29.89 in 10.0 mi WSW 6.9 mph - N/A   Clear
6:51 AM 53.1 °F 43.0 °F 69% 29.90 in 10.0 mi WSW 6.9 mph - N/A   Clear
7:51 AM 52.0 °F 44.1 °F 74% 29.92 in 10.0 mi WSW 6.9 mph - N/A   Clear
8:51 AM 57.0 °F 45.0 °F 64% 29.96 in 10.0 mi West 8.1 mph - N/A   Clear
9:51 AM 60.1 °F 45.0 °F 57% 29.98 in 10.0 mi West 11.5 mph - N/A   Clear
10:51 AM 63.0 °F 43.0 °F 48% 29.99 in 10.0 mi NW 17.3 mph - N/A   Clear
11:51 AM 64.0 °F 42.1 °F 45% 29.98 in 10.0 mi West 13.8 mph 20.7 mph N/A   Clear
12:51 PM 64.9 °F 42.1 °F 43% 29.97 in 10.0 mi WNW 12.7 mph 21.9 mph N/A   Clear
1:51 PM 66.0 °F 42.1 °F 42% 29.96 in 10.0 mi WNW 16.1 mph - N/A   Clear
2:51 PM 66.9 °F 42.1 °F 40% 29.95 in 10.0 mi NW 13.8 mph - N/A   Clear
3:51 PM 66.0 °F 42.1 °F 42% 29.96 in 10.0 mi NW 8.1 mph - N/A   Clear
4:51 PM 66.0 °F 42.1 °F 42% 29.96 in 10.0 mi West 9.2 mph - N/A   Clear
5:51 PM 62.1 °F 42.1 °F 48% 29.97 in 10.0 mi WNW 8.1 mph - N/A   Clear
6:51 PM 57.0 °F 42.1 °F 57% 29.99 in 10.0 mi NNW 5.8 mph - N/A   Clear
7:51 PM 57.0 °F 44.1 °F 62% 30.00 in 10.0 mi Calm Calm - N/A   Clear
8:51 PM 55.9 °F 43.0 °F 62% 30.01 in 10.0 mi Calm Calm - N/A   Clear
9:51 PM 52.0 °F 44.1 °F 74% 30.02 in 10.0 mi Calm Calm - N/A   Clear
10:51 PM 48.9 °F 44.1 °F 83% 30.03 in 10.0 mi NNW 3.5 mph - N/A   Clear
11:51 PM 48.9 °F 46.0 °F 90% 30.02 in 10.0 mi Calm Calm - N/A   Clear